Location: �chenoz-la-M�line
(47.6009°N, 6.1354°E)
Time: 13:06:11
(UTC+00:00)

CZ-2C R/B - Pass Details

Date: 27 January 2021
Orbit: 785 x 870 km, 98.2° (Epoch: 03 March)

Event Time Altitude Azimuth Distance (km) Brightness Sun altitude
Rises 04:54:42 0° 137° (SE) 3,301 6.5 -22.4°
Reaches altitude 10° 04:57:11 10° 128° (SE) 2,385 5.8 -22.0°
Maximum altitude 05:01:54 34° 65° (ENE) 1,314 4.2 -21.2°
Drops below altitude 10° 05:06:44 10° 2° (N) 2,449 5.1 -20.4°
Sets 05:09:18 0° 353° (N) 3,401 5.7 -19.9°
